          28 14  07 45.84  +38 01.3   9.602 10.268     5.9 / 275  19.0   39  .54

          29 14  07 45.35  +38 01.9   9.620 10.273     5.8 / 275  19.0   28  .63

     Mar.  1 14  07 44.86  +38 02.4   9.638 10.278     5.7 / 275  19.0   18  .72

NAKANO

         **** Don't distribute anyone except personal use only ****

                (C) Copyright 2004 OAA/ComputingSection

write mail from CFAD0::NAKANO on 2004-01-21 05:10:57(JST).

 

    C/2001 B2 (NEAT)                                                      

Epoch 2000 Sept. 13.0 TT = JDT 2451800.5  

T 2000 Sept. 1.88131 TT                                 Nakano

q   5.3064570            (2000.0)            P               Q

z  -0.0005567      Peri.  304.75183     -0.87716100     -0.38946652

 +/-0.0000015      Node   145.08468     -0.07884372     +0.69383834

e   1.0029539      Incl.  150.60884     -0.47367947     +0.60572616

From 502 observations 2001 Jan. 24-2003 Mar. 10, mean residual 0".69.

   (1/a)org.= +0.000187, (1/a)fut.= +0.000306 (+/-0.000001), Q= 8.



NAKANO

         **** Don't distribute anyone except personal use only ****

                (C) Copyright 2003 OAA/ComputingSection

write mail from CFAD0::NAKANO on 2003-03-20 00:36:21(JST).

 





    C/2001 B2 (NEAT)                                                      

Epoch 2000 Sept. 13.0 TT = JDT 2451800.5  

T 2000 Sept. 1.88052 TT                                 Nakano

q   5.3064524            (2000.0)            P               Q

z  -0.0005558      Peri.  304.75177     -0.87716034     -0.38946798

 +/-0.0000018      Node   145.08471     -0.07884457     +0.69383786

e   1.0029495      Incl.  150.60881     -0.47368055     +0.60572577

From 426 observations 2001 Jan. 24-2002 Dec. 14, mean residual 0".67.

   (1/a)org.= +0.000187, (1/a)fut.= +0.000306 (+/-0.000002), Q= 8.



NAKANO

         **** Don't distribute anyone except personal use only ****

                (C) Copyright 2003 OAA/ComputingSection

write mail from CFAD0::NAKANO on 2003-01-07 05:12:31(JST).

 

    C/2001 B2 (NEAT)

Epoch 2000 Sept. 13.0 TT = JDT 2451800.5  

T 2000 Sept. 1.88089 TT                                 Nakano

q   5.3064545            (2000.0)            P               Q

z  -0.0005558      Peri.  304.75183     -0.87716067     -0.38946724

 +/-0.0000018      Node   145.08472     -0.07884392     +0.69383784

e   1.0029493      Incl.  150.60880     -0.47368005     +0.60572627

From 420 observations 2001 Jan. 24-2002 May 1, mean residual 0".67.

   (1/a)org.= +0.000187, (1/a)fut.= +0.000306 (+/-0.000002), Q= 8.



         **** Don't distribute anyone except personal use only ****

                (C) Copyright 2002 OAA/ComputingSection

write mail from CFAD0::NAKANO on 2002-05-23 04:49:42(JST).

 



◎C/2001 B2の軌道と予報位置です



  5月1日の八束の安部裕史氏の観測では,彗星の CCD全光度は17.0等でした.



    C/2001 B2 (NEAT)

Epoch 2000 Sept. 13.0 TT = JDT 2451800.5  

T 2000 Sept. 1.88089 TT                                 Nakano

q   5.3064545            (2000.0)            P               Q

z  -0.0005558      Peri.  304.75183     -0.87716067     -0.38946724

 +/-0.0000018      Node   145.08472     -0.07884392     +0.69383784

e   1.0029493      Incl.  150.60880     -0.47368005     +0.60572627

From 420 observations 2001 Jan. 24-2002 May 1, mean residual 0".67.

   (1/a)org.= +0.000187, (1/a)fut.= +0.000306 (+/-0.000002), Q= 8.

 

Date/        TT  R.A.(2000) Decl.     Delta   r     Daily motion  Mag.  Moon Age

              h    h  m       。  ,                      ,  / PA 。  m1      。

2002 May   1 12  09 10.24  +17 29.8   6.765  6.906     4.3 / 313  16.5  143  .77

           2 12  09 10.02  +17 32.7   6.788  6.911     4.1 / 313  16.6  156  .68

           3 12  09 09.81  +17 35.5   6.810  6.915     4.0 / 314  16.6  169  .58

           4 12  09 09.61  +17 38.2   6.833  6.920     3.8 / 315  16.6  177  .48

           5 12  09 09.43  +17 40.9   6.855  6.924     3.6 / 316  16.6  166  .39

           6 12  09 09.25  +17 43.6   6.878  6.929     3.5 / 317  16.6  154  .30

           7 12  09 09.08  +17 46.2   6.900  6.933     3.4 / 319  16.6  142  .21

           8 12  09 08.93  +17 48.7   6.923  6.938     3.2 / 320  16.6  131  .14

           9 12  09 08.79  +17 51.1   6.945  6.942     3.1 / 322  16.6  119  .08

          10 12  09 08.65  +17 53.5   6.968  6.947     2.9 / 323  16.6  107  .04

          11 12  09 08.53  +17 55.9   6.990  6.951     2.8 / 325  16.6   94  .01

          12 12  09 08.41  +17 58.2   7.013  6.956     2.7 / 327  16.7   82  .00

          13 12  09 08.31  +18 00.4   7.035  6.960     2.6 / 329  16.7   70  .01

          14 12  09 08.22  +18 02.6   7.057  6.965     2.4 / 331  16.7   57  .04

          15 12  09 08.14  +18 04.7   7.080  6.969     2.3 / 333  16.7   44  .09

          16 12  09 08.06  +18 06.8   7.102  6.974     2.2 / 336  16.7   31  .16

          17 12  09 08.00  +18 08.8   7.124  6.978     2.1 / 339  16.7   17  .25

          18 12  09 07.94  +18 10.8   7.146  6.983     2.0 / 342  16.7    5  .35

          19 12  09 07.90  +18 12.7   7.168  6.987     1.9 / 345  16.7   11  .46

          20 12  09 07.86  +18 14.6   7.190  6.992     1.9 / 348  16.7   24  .58

          21 12  09 07.84  +18 16.4   7.212  6.996     1.8 / 352  16.7   39  .69

          22 12  09 07.82  +18 18.2   7.233  7.001     1.7 / 356  16.7   53  .79

          23 12  09 07.81  +18 19.9   7.255  7.005     1.7 / 360  16.8   68  .88

          24 12  09 07.81  +18 21.6   7.277  7.010     1.6 /   4  16.8   82  .95

          25 12  09 07.82  +18 23.2   7.298  7.014     1.6 /   9  16.8   97  .99

          26 12  09 07.84  +18 24.8   7.320  7.019     1.6 /  13  16.8  111 1.00

          27 12  09 07.86  +18 26.3   7.341  7.023     1.6 /  18  16.8  125  .99

          28 12  09 07.89  +18 27.8   7.362  7.028     1.6 /  22  16.8  139  .95

          29 12  09 07.94  +18 29.3   7.383  7.032     1.6 /  26  16.8  152  .89

          30 12  09 07.99  +18 30.7   7.404  7.037     1.6 /  31  16.8  165  .82

          31 12  09 08.04  +18 32.1   7.425  7.042     1.6 /  35  16.8  177  .73

     June  1 12  09 08.11  +18 33.4   7.445  7.046     1.7 /  39  16.8  170  .64

NAKANO

         **** Don't distribute anyone except personal use only ****

                (C) Copyright 2002 OAA/ComputingSection

write mail from CFAD0::NAKANO on 2002-05-04 02:17:07(JST).

 

    C/2001 B2 (NEAT) 

Epoch 2000 Sept. 13.0 TT = JDT 2451800.5  

T 2000 Sept. 1.88130 TT                                 Nakano

q   5.3064551            (2000.0)            P               Q

z  -0.0005551      Peri.  304.75190     -0.87716109     -0.38946629

 +/-0.0000019      Node   145.08472     -0.07884314     +0.69383788

e   1.0029458      Incl.  150.60880     -0.47367940     +0.60572683

From 404 observations 2001 Jan. 24-2002 Apr. 12, mean residual 0".68.

   (1/a)org.= +0.000188, (1/a)fut.= +0.000307 (+/-0.000002), Q= 8.



NAKANO

         **** Don't distribute anyone except personal use only ****

                (C) Copyright 2002 OAA/ComputingSection

write mail from CFAD0::NAKANO on 2002-04-26 05:07:08(JST).

 





    C/2001 B2 (NEAT) 

Epoch 2000 Sept. 13.0 TT = JDT 2451800.5  

T 2000 Sept. 1.88003 TT                                 Nakano

q   5.3064556            (2000.0)            P               Q

z  -0.0005587      Peri.  304.75170     -0.87715952     -0.38946984

 +/-0.0000022      Node   145.08475     -0.07884567     +0.69383724

e   1.0029647      Incl.  150.60877     -0.47368190     +0.60572530

From 378 observations 2001 Jan. 24-2002 Mar. 19, mean residual 0".68.



NAKANO

         **** Don't distribute anyone except personal use only ****

                (C) Copyright 2002 OAA/ComputingSection

write mail from CFAD0::NAKANO on 2002-03-30 03:15:31(JST).

 



    C/2001 B2 (NEAT) 

T 2000 Sept. 1.59324 TT                                 Nakano

q   5.3050750            (2000.0)            P               Q

                   Peri.  304.74697     -0.87696819     -0.38992845

                   Node   145.10744     -0.07907940     +0.69359048

e   1.0            Incl.  150.59492     -0.47399709     +0.60571284

From 116 observations 2001 Jan. 24-Feb. 26.



NAKANO

         **** Don't distribute anyone except personal use only ****

                (C) Copyright 2001 OAA/ComputingSection

write mail from CFAD0::NAKANO on 2001-03-04 02:02:19(JST).



◎C/2001 B2の軌道と予報位置です



 2000年に近日点を通った彗星ですが,3月のCCD全光度は16等級で観測

されています.



    C/2001 B2 (NEAT) 

Epoch 2000 Sept. 13.0 TT = JDT 2451800.5  

T 2000 Sept. 1.88003 TT                                 Nakano

q   5.3064556            (2000.0)            P               Q

z  -0.0005587      Peri.  304.75170     -0.87715952     -0.38946984

 +/-0.0000022      Node   145.08475     -0.07884567     +0.69383724

e   1.0029647      Incl.  150.60877     -0.47368190     +0.60572530

From 378 observations 2001 Jan. 24-2002 Mar. 19, mean residual 0".68.

 

Date/        TT  R.A.(2000) Decl.     Delta   r     Daily motion  Mag.  Moon Age

              h    h  m       。  ,                      ,  / PA 。  m1      。

2002 Mar. 20 12  09 30.16  +14 23.8   5.923  6.722    12.0 / 300  16.1   70  .34

          21 12  09 29.45  +14 29.8   5.939  6.727    11.8 / 300  16.1   57  .44

          22 12  09 28.75  +14 35.7   5.955  6.731    11.6 / 300  16.2   43  .54

          23 12  09 28.05  +14 41.5   5.972  6.735    11.4 / 300  16.2   30  .65

          24 12  09 27.37  +14 47.3   5.988  6.740    11.3 / 300  16.2   16  .75

          25 12  09 26.70  +14 53.0   6.005  6.744    11.1 / 300  16.2    4  .85

          26 12  09 26.04  +14 58.6   6.023  6.748    10.9 / 301  16.2   15  .92

          27 12  09 25.40  +15 04.1   6.040  6.753    10.7 / 301  16.2   30  .97

          28 12  09 24.76  +15 09.6   6.058  6.757    10.5 / 301  16.2   45 1.00

          29 12  09 24.13  +15 15.0   6.076  6.761    10.3 / 301  16.2   61  .99

          30 12  09 23.52  +15 20.3   6.094  6.766    10.1 / 301  16.2   76  .95

